Regional Weather Roundup
Issued by NWS Sioux Falls, SD

Home | Current Version | Previous Version | Text Only | Print | Product List | Glossary On
Versions: 1 2 3 4 5 6 7 8 9 10 11 12 13 14 15 16 17 18 19 20 21 22 23 24 25 26 27 28 29 30 31 32 33 34 35 36 37 38 39 40 41 42 43 44 45 46 47 48 49 50
000
ASUS43 KFSD 271310
RWRFSD

WEATHER ROUNDUP FOR SE SOUTH DAKOTA/SW MINNESOTA/NW IOWA
NATIONAL WEATHER SERVICE SIOUX FALLS SD
800 AM CDT MON MAR 27 2017

NOTE: "FAIR" INDICATES FEW OR NO CLOUDS BELOW 12,000 FEET WITH NO
SIGNIFICANT WEATHER AND OR OBSTRUCTIONS TO VISIBILITY.


SDZ038>040-050-052>070-271400-
SOUTHEAST SOUTH DAKOTA

CITY           SKY/WX    TMP DP  RH WIND       PRES   REMARKS
BROOKINGS      CLOUDY    31  31 100 S3        29.95S FOG
CHAMBERLAIN    FOG       30  30 100 CALM      29.95S VSB<1/4
HURON          CLOUDY    38  37  97 S5        29.95R
MADISON        CLOUDY    32  32 100 S5        29.96R WCI  27
MITCHELL       FOG       29  29 100 CALM      29.97R VSB<1/4
SIOUX FALLS    CLOUDY    41  39  93 CALM      29.97R
WINNER         MIX PCPN  29  27  92 CALM      29.95R FOG
YANKTON        CLOUDY    43  37  81 E3        29.97R
$$

MNZ071-072-080-081-089-090-097-098-271400-
SOUTHWEST MINNESOTA

CITY           SKY/WX    TMP DP  RH WIND       PRES   REMARKS
FAIRMONT       CLOUDY    38  36  92 N6        29.96S
JACKSON        CLOUDY    37  37 100 CALM      29.96R FOG
LUVERNE        CLOUDY    34  32  93 CALM      29.97S
MARSHALL       CLOUDY    39  37  92 CALM      29.97R
MONTEVIDEO     CLOUDY    36  36 100 CALM      29.98S FOG
PIPESTONE      CLOUDY    36  34  93 CALM      29.95R FOG
REDWOOD FALLS  CLOUDY    40  35  83 CALM      29.97R
TRACY          CLOUDY    41  38  91 CALM      29.97R
WINDOM         CLOUDY    39  37  93 N6        29.96S
WORTHINGTON    CLOUDY    35  34  96 CALM      29.96S
$$

IAZ001>003-012>014-020>022-031-032-NEZ013-014-SDZ071-271400-
NORTHWEST IOWA

CITY           SKY/WX    TMP DP  RH WIND       PRES   REMARKS
CHEROKEE       CLOUDY    40  40  98 N5        29.96S
ESTHERVILLE    CLOUDY    38  38 100 N6        29.95S
LE MARS        CLOUDY    41  39  93 N3        29.97S
ORANGE CITY    PTCLDY    39  39 100 NE5       29.96S
SHELDON        CLOUDY    37  37 100 NW3       29.95R FOG
SIOUX CITY     CLOUDY    43  41  93 N6        29.96S
SPENCER        CLOUDY    36  35  96 NW3       29.96R FOG
STORM LAKE     CLOUDY    39  39 100 NE6       29.94F FOG
$$

ABBREVIATIONS USED IN REMARKS
   TC - TEMPERATURE IN CELSIUS
  WCI - WIND CHILL INDEX
   HX - HEAT INDEX
  VSB - VISIBILITY





USA.gov is the U.S. government's official web portal to all federal, state and local government web resources and services.